User: anonymous   Login
Location: Malvern Link
(52.1333°N, 2.3000°W)
Time: 08:36:02
(UTC+00:00)
Language:

USA 238 - Orbit

View from above orbital plane
View from above orbital plane
View from above satellite
View from above satellite

Ground track
Ground track

The orbit data is extracted from the following two-line orbital elements,

1 38758U 12048A   20327.15941429 0.00000000  00000-0  00000-0 0    08
2 38758  63.4438 349.9153 0137870   0.3243 359.6757 13.40812709    00
Epoch (UTC): 22 November 2020 03:49:33
Eccentricity: 0.0137870
inclination: 63.4438°
perigee height: 1003 km
apogee height: 1209 km
right ascension of ascending node: 349.9153°
argument of perigee: 0.3243°
revolutions per day: 13.40812709
mean anomaly at epoch: 359.6757°
orbit number at epoch: 0

The dashed part of the orbit path shows where the satellite is in the earth's shadow,  

DLR